GFSSGP_850_temp_039.txt.gz
Temp
17 17 18 18 15 13 15 18 22 22 22 23 24 23 22 22 21 19 19 20 20 20 20 20 19 19 18 18 17 17 17 16 16 15 15 15 15 15 16 16 15 15 15 15 15 15 15 15 15
16 17 17 18 14 14 15 18 21 20 23 24 25 24 22 19 20 19 19 19 19 20 19 20 19 18 17 18 17 16 16 16 15 15 15 16 16 16 15 15 15 15 15 15 15 16 16 16 16
16 16 16 13 13 14 16 19 19 21 24 24 23 24 22 20 20 20 19 18 19 19 19 19 17 17 17 17 16 16 15 15 15 15 16 17 17 16 15 15 15 15 15 14 15 16 16 15 15
15 16 17 14 14 16 18 19 21 22 23 24 24 19 20 20 20 19 19 18 18 19 18 18 16 15 17 16 15 15 15 14 15 15 17 17 17 17 16 15 15 15 15 15 16 16 15 15 15
14 14 13 14 15 16 19 22 23 21 23 24 24 20 19 19 20 19 18 18 18 18 18 18 16 15 17 16 15 15 15 14 15 16 17 17 17 17 17 16 15 15 16 16 16 15 15 15 15
12 12 13 13 15 17 19 22 23 22 23 23 21 20 19 18 19 18 18 18 18 18 17 17 17 17 16 16 14 15 15 14 14 15 17 17 17 17 17 16 16 16 16 16 16 16 16 16 15
11 11 11 14 15 17 19 22 22 22 22 23 23 18 18 18 18 18 18 18 18 18 18 18 18 19 18 16 14 14 15 14 14 15 16 17 17 17 16 16 16 16 16 16 16 16 16 16 16
13 10 12 14 15 16 19 22 23 23 22 23 22 17 17 18 18 18 18 18 18 18 17 18 19 19 19 18 16 14 14 14 14 15 16 17 17 17 17 17 16 16 15 15 15 16 16 16 16
13 11 11 12 14 16 17 17 22 22 22 20 20 20 19 18 18 18 18 18 17 17 17 17 18 18 18 18 18 18 14 14 15 16 16 17 17 17 16 17 16 16 16 15 16 15 15 15 15
11 11 12 14 15 15 15 16 21 21 21 19 19 18 18 18 18 18 18 18 17 16 16 16 17 17 18 18 18 18 17 16 16 17 16 17 17 16 16 16 16 16 16 15 15 16 15 15 15
12 12 14 15 15 13 14 14 20 20 19 20 18 19 19 19 18 19 17 17 17 17 16 16 16 16 18 18 17 17 17 17 16 16 17 16 16 16 16 16 16 16 15 15 15 15 15 15 15
13 14 14 15 12 12 13 15 19 20 19 21 20 21 20 19 18 18 18 18 17 17 16 16 16 16 16 16 16 16 17 17 16 16 16 15 16 16 15 15 15 15 15 15 15 15 15 15 15
12 14 15 15 14 14 13 14 16 19 20 20 19 18 19 19 18 18 18 18 18 17 17 16 16 16 15 15 15 16 16 16 16 16 16 15 15 15 15 14 15 15 14 15 15 15 14 15 15
14 14 15 15 15 14 13 16 17 19 19 20 19 19 19 19 19 18 18 18 18 17 18 17 17 16 16 15 15 15 15 15 15 15 15 15 14 14 14 14 14 14 14 14 14 14 13 14 14
14 13 14 14 15 15 16 15 15 18 19 19 19 19 19 19 19 19 19 18 18 18 18 18 18 18 17 16 15 15 15 15 15 15 15 15 14 14 14 14 14 15 14 14 13 12 12 12 13
13 13 12 14 15 16 16 13 15 18 18 18 18 19 19 19 19 19 19 19 18 18 18 18 17 17 17 17 17 16 15 15 15 14 15 15 15 15 15 14 14 14 14 14 13 13 12 11 12
10 10 11 14 14 15 14 13 15 18 17 18 18 18 19 19 19 19 19 19 19 19 18 18 17 17 17 16 16 16 16 14 14 14 15 15 15 15 14 15 15 15 14 14 13 13 13 12 12
10 11 12 12 13 14 13 12 14 16 17 17 18 18 18 18 19 19 19 19 19 18 18 18 17 17 17 17 17 16 16 15 15 15 15 15 15 15 15 14 14 14 14 14 13 13 13 12 12
12 12 12 13 14 13 12 13 15 15 16 16 17 17 18 18 18 18 18 18 18 18 18 18 17 17 16 16 16 16 16 16 16 15 15 15 15 15 14 15 15 14 14 14 14 13 13 13 12
12 11 12 13 14 13 12 12 13 14 14 16 17 17 17 17 17 16 17 17 18 17 17 17 17 17 17 17 16 16 16 15 15 15 15 15 15 14 14 14 14 15 14 14 14 14 14 12 11
11 11 11 12 13 13 13 12 12 13 15 16 16 16 16 16 15 15 15 16 16 16 17 16 16 16 17 16 16 16 15 15 15 15 15 15 15 15 15 14 14 14 13 13 14 13 14 14 13
10 13 12 11 11 10 12 10 11 12 13 13 14 14 15 15 14 13 13 13 14 15 14 14 14 14 14 14 14 14 15 15 15 14 14 14 14 14 14 14 14 13 13 13 13 13 13 12 13
12 12 11 11 10 10 11 9 10 11 11 11 12 14 14 14 14 13 13 12 12 12 13 13 13 13 13 14 14 14 14 14 14 14 14 13 13 13 13 13 13 13 13 12 12 12 12 13 12
12 10 10 10 9 7 9 9 10 10 12 10 11 13 13 13 13 12 12 11 12 11 12 12 12 12 12 12 12 13 13 13 13 13 13 13 13 13 13 13 12 12 11 11 12 11 11 11 11
11 8 6 6 6 6 9 9 11 12 11 10 10 13 13 13 12 12 12 11 11 11 11 11 11 11 11 11 11 11 11 11 11 11 12 13 12 12 12 13 12 12 11 10 11 11 11 10 10
9 9 7 8 6 7 9 8 10 11 12 13 13 13 13 12 12 12 11 10 10 10 10 10 9 9 9 10 10 10 10 10 10 10 10 11 11 12 11 12 11 11 10 10 10 9 10 10 10
9 9 10 7 8 4 7 9 11 11 10 11 12 12 12 12 12 11 10 10 9 9 9 8 8 8 8 9 9 8 8 8 9 9 10 10 9 10 10 10 11 11 10 10 8 8 9 9 9
8 10 8 5 6 8 7 9 9 9 9 10 10 12 12 12 11 10 10 9 8 8 8 7 7 7 7 7 7 7 8 8 8 8 9 9 9 9 9 9 10 10 10 10 9 8 8 8 8
7 7 8 8 5 6 8 8 9 10 10 10 10 13 12 11 10 10 9 8 8 7 7 7 7 6 6 6 6 7 7 7 7 7 7 8 8 8 8 9 9 9 9 9 9 9 9 9 9
8 8 8 6 7 5 5 8 11 9 9 11 12 13 12 11 10 10 9 7 7 6 6 6 5 5 5 5 6 6 6 6 6 6 6 6 7 7 7 8 8 9 9 9 8 7 7 7 7

GFSSGP_850_temp_042.txt.gz
Temp
17 17 17 18 14 12 14 16 19 21 21 23 23 22 19 19 20 20 19 19 19 20 19 19 18 18 16 17 17 17 17 17 16 16 15 16 16 16 16 15 15 15 15 15 15 16 15 15 15
17 18 18 17 13 13 14 16 19 19 22 23 23 21 20 19 19 19 18 19 20 20 19 19 18 18 18 17 17 17 16 16 15 16 16 16 16 15 15 15 15 15 15 15 16 16 16 16 15
16 17 17 13 12 13 15 18 17 21 22 24 23 22 20 19 19 19 19 19 19 19 19 19 18 17 17 17 17 16 16 15 15 16 17 17 17 15 15 15 15 15 15 15 16 16 16 16 16
16 17 15 13 14 15 17 16 20 20 22 23 22 18 19 19 20 20 19 19 19 19 18 18 17 16 17 17 17 16 15 14 14 16 17 18 17 14 15 15 15 15 15 16 16 16 16 15 15
16 15 12 13 14 15 16 18 20 20 22 22 22 18 18 19 19 20 19 18 18 18 18 16 15 16 16 16 16 15 15 14 15 16 17 18 18 18 16 16 16 16 16 16 16 16 15 15 15
14 13 11 12 14 16 17 19 20 21 21 21 19 18 18 18 18 18 18 18 18 19 18 18 16 17 16 15 15 15 15 15 16 16 17 18 18 17 17 17 16 16 16 16 16 16 16 16 15
14 11 12 12 14 15 18 18 19 20 21 21 20 15 17 18 18 18 18 18 18 18 18 17 17 18 16 15 15 15 15 15 17 16 17 17 17 17 17 16 16 16 16 16 16 16 16 16 16
14 13 12 12 14 14 16 17 19 22 21 21 20 15 16 18 18 18 18 18 17 17 17 17 17 19 17 16 16 14 15 15 17 18 18 17 17 17 17 17 17 16 16 16 16 16 16 16 16
13 10 11 12 13 14 15 14 17 19 21 21 20 19 18 18 18 18 17 17 17 17 17 17 18 18 18 17 18 15 15 15 16 17 18 18 18 17 17 17 17 17 16 15 16 15 15 15 15
11 11 12 14 14 14 13 13 14 17 18 17 18 18 18 18 18 17 17 17 17 17 16 17 17 18 18 18 18 17 17 16 17 17 17 18 17 17 17 17 17 16 16 16 15 15 15 15 15
11 12 14 14 14 11 11 12 14 15 17 18 19 18 18 18 18 18 17 17 17 17 16 16 16 17 18 18 18 17 17 17 17 17 17 16 17 16 16 16 16 16 16 15 15 15 15 15 15
11 13 14 13 12 13 12 12 13 15 17 20 21 20 18 19 19 19 18 17 17 16 16 16 16 16 17 17 17 17 17 17 17 17 16 16 16 16 16 16 16 16 16 16 15 15 15 15 15
12 13 13 12 12 12 12 12 12 13 17 20 19 19 19 19 19 18 18 17 17 17 17 17 16 16 16 16 17 17 17 17 17 16 16 16 16 16 16 16 15 15 15 15 15 15 15 15 15
13 14 13 11 12 11 10 12 11 15 18 18 18 17 18 18 19 18 18 18 17 16 16 17 17 17 17 17 16 16 16 16 16 16 15 15 15 15 15 15 15 15 14 14 14 14 14 14 14
13 12 13 13 13 13 13 11 11 15 16 18 18 18 18 18 18 18 18 18 18 18 18 17 17 17 17 16 16 16 16 15 15 15 15 15 15 15 15 15 15 14 14 14 14 14 14 14 13
12 12 11 13 13 15 14 13 14 15 16 17 18 18 19 19 19 19 18 18 18 17 18 17 17 16 16 16 16 16 16 16 15 15 15 15 15 15 15 15 15 14 14 14 14 14 13 13 13
10 10 11 12 14 14 14 14 15 17 16 17 17 18 18 19 19 19 19 19 18 18 18 18 17 17 17 16 16 16 16 15 15 15 15 15 15 15 15 15 15 14 14 14 14 14 13 13 13
10 10 12 13 13 14 13 12 14 16 16 17 17 18 18 18 19 19 19 18 18 18 18 17 17 17 17 16 16 16 16 15 15 15 15 14 15 14 14 14 15 15 14 14 14 13 13 13 13
10 11 11 12 13 13 13 12 14 15 15 14 16 17 18 18 18 18 18 18 18 18 18 17 17 17 17 16 16 16 16 16 16 15 15 15 15 14 14 15 14 14 14 14 14 14 13 14 13
11 11 11 12 13 13 12 12 13 13 13 15 16 16 17 17 17 17 17 17 18 18 17 17 16 16 16 16 16 16 16 16 15 15 15 15 14 14 14 14 14 14 14 13 13 13 13 14 13
10 9 11 12 12 12 12 11 12 12 13 15 15 17 17 17 16 16 16 16 16 16 16 17 17 16 16 15 15 15 15 15 15 15 15 15 15 14 14 14 14 13 13 13 13 13 13 13 13
9 11 12 11 11 10 12 10 10 12 12 11 15 15 16 16 15 15 15 15 15 15 16 16 16 16 15 15 15 15 14 14 14 14 14 15 15 15 14 14 13 13 13 13 12 12 12 12 12
11 11 10 10 9 10 10 9 10 10 9 11 10 14 15 15 15 14 14 14 14 14 14 14 14 14 14 14 14 14 14 14 14 14 14 14 14 14 14 13 13 13 13 13 12 12 11 11 11
10 9 8 7 8 7 9 8 8 9 10 10 10 12 14 13 13 12 12 12 13 12 12 13 13 13 13 13 13 13 13 13 13 13 13 13 14 14 13 13 13 13 12 12 11 12 11 11 11
9 8 5 7 5 7 8 7 11 11 10 9 9 11 12 12 12 12 12 11 12 11 12 12 12 12 12 12 12 11 11 12 12 12 12 12 13 13 13 12 12 12 12 11 11 11 10 11 10
9 9 5 7 5 7 8 8 9 10 11 12 12 13 12 12 12 12 11 11 11 11 11 10 10 10 10 10 10 10 10 10 10 10 10 10 11 11 11 11 12 12 11 11 10 10 10 9 10
9 8 9 6 5 3 6 7 9 10 9 9 11 12 12 12 11 11 11 11 11 10 10 9 9 9 8 9 9 8 8 8 8 8 9 9 9 9 9 10 10 10 11 11 11 10 9 8 8
8 9 7 3 5 7 7 7 8 9 8 9 9 10 11 11 11 11 10 10 10 9 9 9 8 8 8 8 8 8 7 7 7 7 8 8 8 8 9 8 9 9 10 10 10 10 10 9 8
7 6 7 7 6 6 7 7 7 8 9 9 10 11 11 11 11 10 10 9 9 8 8 7 7 7 7 7 7 7 6 6 6 6 6 7 7 7 8 8 8 9 9 9 9 9 9 9 8
8 7 9 8 6 4 4 7 8 8 8 10 10 12 12 12 11 10 9 9 8 7 7 6 6 5 6 6 6 6 6 6 6 6 5 6 6 7 7 7 7 8 8 8 8 8 8 7 7

GFSSGP_850_temp_045.txt.gz
Temp
16 17 18 18 14 12 13 15 16 18 20 22 22 21 20 19 20 20 19 20 20 20 19 16 17 17 17 16 16 16 16 16 16 16 16 16 16 16 16 15 15 15 15 16 16 15 15 15 15
16 17 18 17 12 13 14 15 17 18 21 21 21 21 19 18 19 18 18 19 20 20 19 16 17 17 17 17 16 16 15 16 17 17 17 17 16 16 16 15 15 15 15 16 16 16 16 15 15
16 17 17 12 11 13 14 17 16 19 21 21 21 20 19 19 19 19 18 19 19 19 20 17 17 17 17 17 17 16 15 16 17 17 18 17 16 15 15 15 15 15 16 16 16 16 16 16 15
16 16 15 12 13 14 15 16 17 18 21 21 20 17 19 19 20 19 19 19 19 19 19 18 17 17 17 17 16 16 16 16 16 17 18 17 15 15 16 16 15 15 16 16 16 16 16 16 16
16 15 11 12 13 14 15 17 17 17 19 21 20 17 17 18 19 19 19 18 18 19 19 18 16 16 17 17 16 17 17 17 16 17 18 17 16 17 16 16 16 16 16 16 16 16 16 16 15
14 13 11 11 13 14 15 16 17 18 20 19 18 17 17 18 18 18 18 18 18 19 18 17 15 16 17 16 16 16 16 17 17 17 17 17 17 17 16 16 16 16 16 16 16 16 16 15 15
12 11 11 12 13 13 16 16 16 15 19 19 19 15 16 17 17 18 17 17 17 18 18 18 17 16 16 15 15 15 15 16 17 18 18 17 17 17 17 17 17 16 16 16 16 16 16 15 15
12 12 11 12 13 14 14 15 15 14 17 18 19 15 16 17 16 17 17 17 17 17 17 17 18 17 16 15 14 14 14 15 16 17 18 18 18 17 17 17 17 17 16 16 16 16 15 15 15
13 11 12 13 13 14 14 12 14 16 16 16 18 18 18 17 17 16 16 17 16 16 16 16 17 17 17 16 16 15 14 15 15 16 17 17 18 18 18 17 17 17 17 16 16 16 16 15 15
10 11 13 15 14 13 13 12 13 14 14 17 18 17 17 17 17 17 17 17 16 16 16 16 16 17 18 17 16 16 15 15 16 16 16 17 17 17 17 17 17 17 16 16 16 16 15 15 15
10 11 13 14 14 11 11 13 12 13 14 17 14 17 17 17 17 17 17 17 17 17 16 17 17 17 18 17 17 17 17 16 16 16 16 16 17 17 17 17 17 17 16 16 16 16 15 15 15
11 13 14 13 13 13 12 12 12 13 14 16 15 15 18 18 18 17 17 17 17 17 17 16 16 17 17 17 17 17 17 16 16 16 16 16 16 17 17 17 17 16 16 16 16 15 15 15 15
11 13 14 12 12 12 12 11 11 11 15 15 17 18 19 19 19 17 17 17 17 17 17 17 16 16 16 16 16 16 16 16 16 16 16 16 16 16 17 16 16 16 15 15 15 15 15 15 15
12 13 12 11 12 11 12 12 10 13 15 15 15 18 19 18 18 17 17 17 17 17 17 17 17 17 17 16 16 16 16 16 16 16 16 16 16 16 16 15 15 15 15 15 14 14 14 14 14
12 11 10 10 11 11 11 10 10 13 14 13 15 17 17 18 18 18 18 18 17 17 17 17 17 17 16 16 16 16 16 15 15 15 15 15 15 15 15 15 15 15 14 14 14 14 14 14 13
10 11 10 11 11 11 12 11 11 13 12 13 15 16 17 17 18 18 18 18 18 17 17 17 16 16 16 16 16 16 16 16 16 15 15 15 15 15 15 15 15 15 14 14 13 13 13 13 13
10 9 10 11 12 12 12 12 13 14 14 14 15 16 17 17 18 18 18 18 18 18 17 17 16 16 16 16 16 16 15 15 15 15 15 15 15 14 14 15 15 15 14 14 14 14 13 13 13
9 8 10 11 12 11 11 12 12 14 14 14 15 16 17 18 18 18 18 18 17 18 18 17 16 16 16 15 15 15 15 15 15 15 15 15 15 14 14 14 14 14 14 14 14 13 13 13 13
9 10 10 12 13 13 12 12 12 13 12 13 15 15 17 17 17 18 18 18 18 18 18 18 17 17 16 16 16 16 16 15 15 15 15 14 14 15 14 14 14 14 14 14 13 13 13 13 13
10 10 10 12 13 13 12 12 14 14 13 14 15 15 15 16 17 17 18 17 17 17 17 17 17 17 17 17 16 16 16 15 15 15 15 15 14 14 14 14 14 13 13 13 13 13 13 13 13
9 9 10 11 11 12 11 11 12 13 13 14 15 15 15 16 17 17 17 17 17 16 16 16 16 16 16 16 16 16 16 16 16 16 16 15 14 14 14 14 14 14 13 13 13 13 13 13 12
9 11 11 10 10 10 12 9 10 12 12 11 14 15 15 15 15 16 16 16 15 15 15 15 15 16 16 16 15 15 15 15 15 15 15 15 15 15 14 14 14 14 14 13 13 13 12 12 12
10 10 11 10 9 10 10 9 10 11 10 12 11 15 16 15 15 15 15 15 15 15 15 15 14 14 14 14 13 13 13 13 14 14 14 14 14 14 14 14 14 14 13 13 12 12 11 11 11
9 9 8 7 7 6 9 9 8 10 10 11 11 13 14 14 14 13 13 14 14 14 13 13 13 13 13 13 13 12 12 12 12 13 13 13 13 13 13 13 13 13 12 12 12 11 11 11 11
10 8 8 7 5 6 7 8 12 11 10 9 10 12 13 14 13 13 13 12 12 12 12 12 12 12 12 12 12 12 12 12 12 12 12 12 12 12 12 12 12 12 12 12 11 11 11 11 11
8 8 5 8 6 7 7 7 9 10 11 12 12 13 12 12 12 12 12 12 12 11 11 11 11 11 11 11 11 11 11 10 10 10 10 10 10 10 11 11 11 11 11 11 10 10 10 10 9
8 6 7 4 3 3 6 7 9 9 9 9 9 10 11 11 11 11 11 11 11 11 11 11 10 10 10 10 10 9 9 9 9 9 8 8 9 9 9 9 9 10 10 10 10 10 10 10 10
8 7 7 2 4 6 6 6 8 10 9 8 8 9 10 11 11 11 11 11 11 10 10 10 9 9 9 8 8 8 8 7 7 7 7 7 7 8 8 8 8 9 9 9 9 10 10 10 9
7 6 6 6 4 5 6 7 6 8 8 8 8 10 11 11 11 11 11 10 10 10 9 9 8 8 7 7 7 7 7 7 7 6 6 6 6 7 7 7 7 8 8 8 9 9 9 9 9
7 6 6 5 5 3 3 6 9 7 6 9 9 11 11 12 11 11 10 10 9 9 8 7 6 6 6 6 6 6 6 6 6 6 6 5 6 6 6 7 7 7 7 7 8 8 8 8 8

GFSSGP_850_temp_051.txt.gz
Temp
16 17 17 18 17 16 16 17 16 18 19 19 19 20 22 20 22 23 20 21 21 21 19 17 18 18 17 17 16 16 16 16 16 17 17 16 16 15 16 16 16 16 16 16 16 15 15 15 15
16 16 17 17 16 16 16 15 17 17 18 18 19 19 19 20 19 20 20 21 21 20 19 18 18 17 17 17 16 16 16 16 16 17 17 16 16 15 15 15 16 16 17 17 16 16 15 15 15
16 16 17 15 13 16 17 16 16 16 18 18 19 18 18 17 18 19 20 21 20 20 19 17 17 16 17 17 16 16 15 16 16 17 17 16 16 15 15 16 16 16 17 17 17 16 16 16 15
15 15 15 15 14 15 16 16 15 16 18 19 19 18 17 17 18 18 20 20 20 20 18 17 16 16 16 16 16 16 16 16 16 17 16 16 16 15 14 16 16 16 16 16 16 16 16 16 16
15 14 14 13 14 14 15 15 15 16 16 18 18 18 16 17 17 18 19 20 19 19 17 16 16 16 16 16 16 16 16 17 17 17 15 14 14 14 17 16 16 17 16 16 16 16 16 16 16
14 13 13 13 14 14 14 15 15 14 15 17 17 16 16 17 17 18 18 19 19 18 16 16 16 16 16 16 15 16 16 17 17 17 16 14 14 15 17 17 17 17 17 17 17 17 16 16 16
12 12 13 13 14 14 15 15 14 13 14 16 15 17 16 16 17 18 18 18 18 18 16 16 15 16 16 16 15 15 16 16 17 17 17 17 17 18 17 17 17 17 16 16 16 16 16 16 16
12 11 12 13 14 15 14 14 14 14 15 15 15 15 16 16 16 17 17 17 17 17 17 15 15 16 16 15 15 15 15 15 16 17 17 17 17 18 17 17 17 16 16 16 16 16 16 16 16
10 10 11 13 14 14 13 14 13 15 15 14 13 13 14 15 16 16 16 16 16 16 16 16 15 15 15 15 15 14 14 15 15 16 17 17 17 17 17 17 17 17 16 16 16 16 16 16 16
10 10 12 13 13 12 13 13 12 14 14 14 15 15 14 15 15 16 16 16 16 16 16 15 15 15 15 15 15 15 14 15 15 16 16 17 17 17 17 17 17 17 16 16 16 16 16 15 15
9 11 12 14 13 13 13 13 13 13 14 13 13 14 15 14 15 16 17 17 17 16 16 16 15 15 15 15 14 15 16 16 15 16 16 16 17 17 17 17 16 16 16 16 15 15 15 15 15
10 11 12 12 12 13 13 13 12 13 15 15 15 14 14 14 15 16 18 17 17 16 16 15 15 15 15 14 14 15 15 16 16 15 16 16 16 16 16 16 16 16 16 15 15 15 15 15 14
11 11 10 11 12 12 13 13 13 13 15 15 16 16 15 15 14 16 17 18 17 16 16 15 15 15 15 15 15 15 16 16 16 16 16 16 16 16 16 16 16 16 15 15 14 14 14 14 14
11 11 12 11 11 12 12 12 13 15 14 15 16 17 15 15 15 16 17 17 17 17 16 16 16 16 16 16 16 16 16 16 15 15 16 15 15 15 15 15 15 15 15 14 14 14 14 14 14
10 11 11 11 11 11 11 13 12 13 14 14 15 16 16 15 15 17 17 17 18 17 16 16 16 16 16 16 16 16 16 16 16 15 15 15 15 15 15 15 15 15 14 14 14 14 14 14 14
10 11 10 10 11 10 11 12 14 14 13 13 15 15 16 15 15 16 16 17 17 17 16 16 16 16 16 16 16 16 16 15 15 15 15 15 15 15 14 14 15 14 14 14 14 14 13 14 13
9 10 10 10 11 11 12 11 13 13 12 13 14 15 15 15 16 15 16 16 17 17 16 16 16 16 16 16 16 15 15 15 15 15 15 15 15 15 14 14 14 14 14 14 14 14 13 13 13
9 8 9 10 10 10 10 11 12 11 12 14 15 15 14 14 16 16 16 16 16 16 16 16 16 16 16 15 15 15 15 15 15 16 15 15 15 15 14 14 14 14 14 14 14 14 13 13 13
8 9 10 11 11 11 10 11 12 11 11 11 13 13 14 14 15 16 17 17 17 16 16 16 16 16 16 16 16 16 16 16 16 16 15 15 15 14 14 14 14 14 14 14 14 14 13 13 13
9 8 9 11 10 11 10 11 12 11 11 13 13 14 13 14 14 16 17 17 17 18 17 17 17 16 16 16 16 16 16 16 16 15 15 15 15 15 14 14 14 14 14 13 14 13 13 13 13
8 9 8 10 10 11 10 10 11 11 11 12 14 15 13 14 14 15 16 17 17 18 17 17 17 17 17 16 16 16 15 15 15 15 15 15 14 14 14 14 14 14 14 13 13 13 13 13 12
9 9 9 9 10 10 11 10 10 12 12 12 12 13 14 14 14 15 16 16 17 17 17 17 17 17 16 16 16 15 15 15 15 15 15 14 14 14 14 14 14 14 14 14 13 13 13 12 12
9 9 9 9 8 9 9 10 11 11 12 12 12 13 15 14 14 15 15 16 15 15 15 15 15 15 15 15 15 15 15 15 15 14 14 14 13 13 13 13 13 13 13 13 13 13 12 12 11
7 8 8 8 9 8 8 9 10 10 11 12 13 13 14 15 15 16 15 15 15 15 14 14 14 14 14 14 14 14 14 14 13 13 13 13 13 12 12 13 13 13 13 13 13 12 12 11 11
8 8 7 8 7 8 6 7 11 11 11 11 12 13 13 14 15 15 14 15 15 14 14 14 14 13 13 13 13 13 12 12 12 12 12 12 12 12 12 12 11 11 12 12 12 12 11 11 11
9 8 7 7 7 8 6 8 11 10 10 11 11 11 12 12 13 14 14 14 14 13 13 13 12 12 12 12 12 12 11 11 11 11 11 11 11 11 11 10 10 10 10 10 10 10 10 11 10
8 8 7 4 2 5 7 7 9 9 10 10 11 11 12 13 13 12 12 12 12 12 12 12 12 11 11 11 11 10 10 10 10 10 10 10 9 9 9 9 9 8 8 8 9 9 9 9 9
8 7 7 4 5 7 7 7 10 10 10 9 9 10 11 11 11 11 10 10 10 11 11 11 11 10 10 10 10 9 9 9 8 8 8 8 8 8 8 8 8 8 7 8 8 8 8 9 9
7 6 6 6 5 7 7 9 7 9 9 8 8 9 10 10 10 10 9 10 10 10 10 10 10 10 9 9 9 8 8 8 7 7 7 7 7 7 7 7 7 7 7 7 7 7 8 8 8
6 6 6 6 6 3 4 8 8 7 7 7 9 10 10 9 9 9 9 10 10 10 10 10 10 9 9 8 8 7 6 6 6 5 5 6 5 5 6 6 6 6 6 6 6 6 6 6 6

GFSSGP_850_temp_054.txt.gz
Temp
16 17 17 17 21 22 22 22 22 21 23 21 21 24 26 26 27 25 18 21 19 18 16 17 17 17 16 16 16 16 15 16 16 16 16 16 16 16 16 16 16 17 16 16 15 15 16 15 16
16 16 17 17 20 21 22 22 22 22 21 20 20 21 24 25 20 20 18 20 20 18 16 16 16 16 16 16 16 16 16 16 17 17 17 16 15 15 16 16 17 17 17 16 16 16 16 16 16
16 16 18 19 21 21 23 21 21 21 20 20 21 20 22 21 18 17 17 19 17 17 16 16 16 17 17 16 16 16 16 16 17 17 17 16 15 15 16 16 17 17 17 17 17 17 16 16 16
14 16 16 19 20 21 21 20 19 21 21 20 21 22 18 17 17 16 17 17 16 16 16 16 17 17 17 16 16 16 16 16 17 17 17 16 16 15 16 17 17 17 17 17 17 17 16 16 16
15 17 18 19 21 20 19 18 19 21 21 21 20 22 20 16 16 16 16 16 17 16 16 17 16 16 16 16 16 16 16 17 17 15 15 15 15 15 16 17 17 17 17 17 17 17 17 16 16
16 17 18 18 19 18 18 17 18 20 19 19 21 21 18 16 16 16 15 16 16 16 16 15 16 16 16 16 16 16 16 17 18 15 15 15 14 15 16 16 17 17 17 17 17 17 16 16 16
17 17 18 19 19 17 17 16 19 19 20 19 17 21 16 15 15 16 15 16 15 15 15 15 16 16 16 16 15 16 16 17 17 17 16 15 16 16 16 16 16 17 17 17 17 17 16 16 16
16 18 16 18 17 17 16 15 15 19 18 15 15 17 18 14 15 16 15 15 15 15 15 16 15 15 15 15 15 15 15 16 17 17 17 16 16 17 17 17 17 17 16 16 16 16 16 16 16
12 14 16 17 17 17 15 17 14 14 17 16 15 15 14 15 15 15 15 15 15 15 15 15 15 15 15 16 14 14 14 15 16 16 17 16 15 17 16 17 17 16 16 16 16 16 16 15 15
12 12 16 17 16 16 14 16 14 16 17 16 16 15 14 15 15 15 14 15 15 15 15 15 15 15 15 15 15 14 14 14 15 16 16 16 16 16 16 17 16 16 16 16 16 16 15 15 15
12 14 15 15 15 14 14 15 14 17 17 16 16 15 15 14 15 15 15 15 15 15 15 14 14 14 15 14 14 15 15 13 14 15 15 16 17 17 16 16 16 16 16 15 15 15 15 14 14
11 14 15 15 13 14 16 14 15 15 16 14 14 14 15 14 14 14 15 15 15 15 15 14 14 14 14 14 14 14 14 13 13 15 15 16 16 16 16 16 16 16 15 14 15 14 15 15 15
12 11 12 14 12 13 13 14 14 14 14 14 14 15 15 15 14 14 15 15 14 14 14 14 14 15 14 14 14 14 14 14 13 15 15 15 15 15 15 16 16 15 15 15 14 14 14 14 14
13 12 11 12 11 11 13 14 13 17 14 14 14 15 15 15 15 15 15 15 16 15 14 14 15 14 14 14 13 14 13 13 14 15 16 15 15 15 15 15 15 15 15 15 14 14 14 14 14
13 13 13 12 12 12 10 13 14 15 15 15 15 15 16 16 15 15 14 15 16 16 16 15 15 15 15 15 15 14 14 14 15 15 16 16 15 15 15 15 15 15 15 14 14 14 14 14 14
14 13 12 13 12 12 12 13 16 15 15 15 16 16 15 16 15 15 16 16 17 17 16 16 15 15 15 15 15 15 15 15 15 15 15 15 15 15 15 15 15 14 14 14 14 14 14 14 14
13 13 13 11 13 13 13 15 16 14 14 16 16 16 16 16 16 15 16 17 17 17 17 16 16 15 15 15 15 15 15 15 15 15 15 15 15 15 15 15 14 14 14 14 14 14 14 13 13
13 14 14 12 12 12 13 14 15 15 15 16 18 18 17 15 16 15 16 16 17 17 17 16 16 15 15 15 15 15 15 15 15 16 15 15 15 15 14 14 14 14 14 14 14 14 13 14 13
15 14 14 11 12 11 12 13 15 15 14 15 16 17 17 16 17 16 15 16 16 17 17 17 16 16 16 16 16 15 16 16 16 15 15 15 15 14 14 14 14 14 14 14 14 13 13 13 13
13 14 14 14 12 11 12 13 15 16 15 15 16 17 17 17 16 16 15 16 17 17 17 16 16 16 16 15 15 15 16 15 14 15 15 15 15 15 15 15 15 14 14 14 14 13 13 13 13
13 14 14 14 13 13 13 14 14 16 15 15 15 16 17 17 17 16 15 15 16 17 17 17 17 16 16 16 16 16 15 15 15 15 15 15 15 15 15 15 14 14 14 14 14 13 13 13 13
11 13 13 13 14 13 14 15 16 16 15 16 15 15 16 16 15 15 15 15 16 17 17 17 16 16 16 16 16 16 15 15 15 15 15 15 15 15 14 14 14 14 14 14 14 14 13 13 12
12 12 13 13 14 13 13 13 17 15 16 16 16 15 15 15 14 14 16 15 15 16 16 16 16 16 16 15 15 15 15 15 15 15 15 14 14 14 14 13 13 13 13 13 13 13 13 12 12
11 12 12 12 13 11 14 14 16 16 15 16 17 16 15 15 14 14 15 15 15 15 16 16 15 15 15 15 15 15 15 15 14 14 14 14 13 13 13 13 12 13 13 13 13 13 13 12 12
13 13 10 10 10 12 11 12 15 16 16 15 15 15 15 15 15 14 13 15 15 15 15 14 14 14 14 14 14 14 14 14 13 13 13 12 12 12 12 12 11 11 11 11 11 11 12 12 11
12 14 12 11 11 13 10 12 15 15 13 13 12 13 13 12 13 14 15 16 14 15 14 13 13 13 13 13 13 13 12 12 12 12 12 12 11 11 11 11 10 10 10 10 10 10 10 10 10
10 10 11 10 8 11 13 13 15 15 15 14 14 12 13 12 12 13 13 14 13 14 12 12 12 12 12 12 12 12 11 11 11 11 11 11 10 10 10 10 9 9 9 8 8 9 9 8 9
11 11 11 10 10 11 12 13 16 15 15 15 14 12 12 11 11 12 12 11 11 11 11 11 11 11 11 11 11 11 11 10 10 10 10 9 9 9 9 8 8 8 8 8 8 8 8 8 8
10 10 10 11 11 12 13 15 15 15 14 14 13 11 11 10 9 9 8 8 9 10 10 10 11 11 11 10 10 10 10 9 9 8 8 7 7 7 7 7 7 7 7 7 7 7 8 8 8
10 12 12 11 10 10 11 14 14 14 13 11 13 12 11 12 11 8 7 8 9 10 10 10 10 10 10 10 9 9 8 8 7 7 6 6 6 6 6 6 6 6 6 6 6 7 7 7 7

GFSSGP_850_temp_060.txt.gz
Temp
15 16 16 17 16 18 19 21 24 22 24 24 24 23 22 21 22 19 20 20 20 20 19 18 17 17 17 16 16 16 16 17 16 16 16 16 16 17 17 17 16 16 14 14 16 16 17 17 17
15 15 16 17 16 18 19 23 24 23 24 23 23 23 24 21 20 20 20 20 19 20 19 18 17 17 17 16 16 16 16 17 16 15 15 16 16 16 17 17 16 16 16 16 16 17 17 17 17
14 15 17 16 17 18 20 23 23 25 23 23 24 23 21 19 20 20 20 19 18 19 19 17 17 17 17 16 16 17 17 17 16 16 16 15 16 17 17 17 17 17 16 17 17 17 17 17 17
15 15 16 17 17 20 22 23 24 23 22 22 23 20 19 19 19 19 20 19 18 17 18 17 17 17 16 16 16 17 17 17 16 16 16 16 16 17 17 17 17 17 17 17 17 17 17 17 17
14 17 16 16 18 20 23 22 22 23 23 23 23 22 18 18 18 19 19 19 18 17 17 17 17 17 16 16 17 17 17 17 17 16 15 16 16 17 17 17 18 18 17 17 17 17 17 17 17
14 16 16 16 18 20 21 21 22 22 24 23 22 18 16 18 18 18 19 19 19 18 17 17 17 16 16 16 17 17 17 17 16 15 15 15 16 16 17 17 17 18 17 18 17 17 17 17 17
14 15 15 17 19 20 19 20 20 22 23 20 20 21 16 18 18 18 19 19 19 18 17 17 16 16 16 16 16 16 17 17 16 15 15 14 17 17 17 17 17 17 17 17 17 17 17 17 17
14 15 16 17 19 19 17 18 18 19 19 19 19 18 16 17 18 18 19 19 18 17 17 16 16 16 16 16 15 16 17 17 16 15 16 16 17 17 17 18 18 18 18 18 17 17 17 17 17
15 12 14 16 19 18 18 17 17 19 19 18 18 17 15 17 18 18 18 18 18 17 17 16 16 16 16 15 14 15 16 17 16 16 16 16 17 17 17 17 18 17 17 17 17 17 17 17 16
13 11 15 18 17 17 18 18 17 19 19 18 17 15 14 16 18 18 17 18 18 17 16 16 15 16 15 15 15 14 15 16 16 17 17 16 14 15 18 17 17 17 17 17 16 16 16 16 17
12 13 14 16 16 18 17 18 17 19 17 18 17 15 15 15 16 17 17 18 17 18 17 16 16 16 17 16 15 14 15 14 14 15 16 15 14 15 16 17 17 17 17 16 16 16 15 16 15
12 15 15 13 15 15 16 17 18 18 17 16 16 17 15 15 15 16 17 17 17 17 17 15 16 16 16 16 16 15 15 14 14 14 14 14 15 16 16 15 16 17 17 15 14 15 13 14 15
11 13 12 12 13 13 15 17 15 16 16 16 16 17 16 15 15 16 16 17 17 17 17 16 16 16 16 16 16 15 15 15 15 14 14 14 15 16 16 15 15 15 14 14 14 14 14 13 13
10 10 11 11 12 12 14 15 15 16 17 16 16 17 16 15 15 15 15 16 17 17 16 16 16 16 16 16 16 15 15 15 15 14 14 14 14 15 15 14 15 15 15 14 14 14 13 13 13
10 11 10 13 13 14 13 14 14 16 16 16 17 17 17 16 15 15 15 17 16 16 16 16 15 15 15 15 15 15 14 15 15 15 14 14 14 14 14 14 13 14 14 14 14 13 14 14 14
9 9 8 11 11 12 13 13 15 15 16 15 16 17 17 17 16 16 15 16 16 15 15 15 15 15 15 15 15 14 15 15 15 15 14 14 14 15 14 14 14 14 13 13 14 14 13 13 13
10 8 7 10 14 13 13 14 16 17 16 16 16 16 17 17 16 16 16 15 15 15 15 15 15 15 14 14 14 14 14 15 15 14 14 14 15 14 14 14 14 13 14 13 13 13 13 13 13
9 10 9 9 13 14 13 13 16 17 16 16 16 16 17 18 17 17 16 16 15 15 15 15 14 15 14 14 14 14 14 14 14 14 14 14 14 14 14 14 13 13 13 13 13 13 13 13 13
13 12 11 11 13 14 13 13 14 17 16 16 16 17 17 17 18 17 17 17 16 15 15 15 15 16 15 15 14 14 14 14 14 14 14 14 14 14 14 13 13 13 13 13 13 13 13 13 13
15 14 12 14 14 13 13 13 14 15 16 17 17 17 17 17 18 17 17 17 17 16 15 15 16 16 16 15 15 15 14 14 15 14 14 14 14 14 14 13 14 14 13 13 13 12 12 12 12
13 14 12 13 13 14 13 12 13 14 15 17 17 17 17 17 17 17 17 17 17 17 16 15 15 15 15 15 15 14 14 14 14 14 14 14 14 14 14 14 14 14 13 13 13 13 12 12 12
14 16 15 13 12 11 13 11 13 14 14 15 17 17 17 17 18 18 17 17 17 17 17 15 15 14 14 14 14 16 16 15 15 14 14 15 15 14 14 14 15 15 14 14 14 14 13 12 12
13 15 13 12 13 13 12 11 14 14 14 15 17 17 17 17 17 17 17 18 17 17 17 16 16 15 16 16 16 16 15 14 14 13 14 14 14 15 15 15 15 14 14 14 13 13 12 12 12
14 13 13 13 13 8 14 12 13 15 15 17 18 18 18 17 17 17 16 16 16 16 16 16 16 16 15 15 15 15 15 15 14 14 14 14 14 14 14 14 14 13 13 13 13 12 12 11 11
13 11 8 8 7 8 13 12 13 15 16 16 17 17 17 17 17 17 16 15 15 15 15 16 16 16 15 14 16 16 15 15 15 15 14 14 14 14 14 13 13 12 12 12 11 12 12 11 11
12 12 9 10 8 10 13 11 13 14 16 16 15 16 16 16 16 16 16 16 15 15 15 15 15 16 15 13 15 15 13 14 14 14 14 13 13 13 12 12 12 11 11 11 10 10 10 9 8
11 9 12 10 13 8 11 14 16 15 14 15 15 15 14 15 15 15 14 15 14 14 14 15 15 15 15 15 14 14 12 13 13 13 13 12 12 11 11 11 11 10 10 9 9 9 9 7 8
11 12 10 7 9 12 13 13 13 13 13 13 13 14 14 13 13 13 13 13 13 13 13 12 13 15 15 14 14 12 12 13 13 12 11 11 11 11 11 10 10 9 9 8 8 8 7 7 7
11 10 11 11 9 9 10 11 15 12 12 12 13 14 14 13 12 12 11 11 11 11 11 11 10 11 14 13 13 13 13 12 11 11 11 11 11 10 10 9 8 8 7 7 7 7 6 6 7
10 11 12 7 9 9 8 11 15 13 13 14 14 14 14 13 13 12 10 10 10 9 9 9 9 10 10 11 11 12 11 12 12 12 11 10 9 8 8 7 6 6 6 6 5 6 6 6 6

GFSSGP_850_temp_063.txt.gz
Temp
15 15 16 16 15 13 15 18 21 20 21 23 23 22 19 19 19 19 18 19 19 19 18 18 18 17 16 16 16 16 16 16 16 16 17 17 17 17 17 17 16 15 17 17 17 17 17 17 16
15 15 15 16 14 13 16 19 21 19 21 23 23 21 19 18 20 18 19 19 20 19 18 17 17 17 16 16 16 16 17 16 16 16 16 17 17 17 17 17 17 17 17 17 17 17 17 17 16
14 15 15 13 13 13 16 20 21 22 22 23 22 21 19 18 20 19 19 18 19 19 18 17 17 16 16 16 17 17 17 16 16 15 16 16 17 17 17 17 17 17 17 17 17 17 17 17 17
14 14 15 13 15 16 18 19 21 21 22 23 22 18 19 19 18 18 18 18 18 18 17 17 17 16 16 16 17 17 17 16 16 15 16 17 17 17 18 18 17 17 17 17 17 17 17 17 17
13 14 11 13 14 17 19 21 22 21 21 22 23 19 19 17 19 18 18 18 19 18 17 17 16 16 16 16 17 17 17 17 16 16 16 17 17 18 18 18 18 18 18 18 18 18 17 17 17
13 14 11 12 15 17 19 19 21 21 22 21 21 20 18 18 18 19 18 18 18 17 17 16 16 16 16 16 17 18 17 17 16 16 16 16 17 18 18 18 18 18 18 18 18 18 17 17 17
11 11 12 13 15 17 17 21 17 17 20 19 20 17 17 18 19 19 18 18 18 17 17 17 16 16 16 16 17 17 17 17 16 15 16 17 17 17 18 18 18 18 18 18 18 18 17 17 17
13 11 13 13 15 16 17 19 18 18 18 19 19 15 15 17 16 18 18 17 18 17 17 17 16 16 16 16 16 17 17 17 16 16 17 17 18 18 18 18 18 18 18 18 18 18 17 17 17
13 11 11 13 15 16 17 17 18 18 18 17 17 17 18 17 18 16 18 17 17 17 17 16 16 16 16 16 16 17 17 16 16 16 16 17 18 18 18 18 18 18 18 17 17 17 17 17 17
11 12 12 15 15 16 17 18 18 18 17 15 15 16 16 18 18 18 18 17 17 17 16 16 16 16 16 17 17 16 17 17 16 16 16 17 17 17 18 18 18 18 17 17 17 17 17 17 16
12 11 13 13 15 17 16 17 18 17 15 16 15 15 16 18 18 19 17 17 17 17 16 16 15 16 16 16 17 17 16 17 17 17 17 16 17 17 17 17 17 17 17 17 17 16 16 16 16
10 13 14 14 15 16 15 17 15 17 16 16 16 16 16 17 18 18 18 17 16 17 17 17 15 16 16 16 16 16 16 16 16 16 15 15 16 16 17 16 16 16 16 16 16 16 16 16 15
11 10 12 13 13 13 15 15 15 15 16 16 16 16 15 16 16 17 17 17 17 17 17 17 16 16 16 16 16 15 15 15 14 14 14 15 15 16 16 16 16 16 16 16 15 15 15 14 14
10 10 11 12 11 12 13 14 15 15 16 16 16 16 15 16 16 16 17 17 16 16 16 17 16 16 15 16 16 15 15 15 14 14 15 15 15 15 15 15 15 15 16 15 15 14 14 13 13
9 10 9 10 10 11 13 13 13 16 16 16 16 16 16 16 15 16 16 16 16 17 16 16 16 16 16 16 16 15 15 15 15 15 15 15 15 15 15 15 15 15 15 15 14 14 14 13 13
9 8 9 10 10 11 13 13 13 15 15 15 16 16 16 16 16 15 16 16 16 16 16 16 16 16 15 15 15 15 15 15 15 15 14 15 15 15 15 15 14 14 14 14 14 14 13 13 13
9 8 8 9 9 10 12 12 14 16 16 15 15 16 16 16 16 17 16 16 16 16 16 16 16 15 15 15 15 15 14 15 15 15 14 14 14 15 15 15 14 14 13 13 13 13 13 13 13
8 7 8 9 10 11 11 12 13 16 16 16 15 16 16 17 16 17 17 17 16 16 15 15 15 15 15 15 15 15 14 14 14 15 14 14 14 14 15 14 14 13 13 13 13 13 13 13 13
11 9 10 10 11 9 10 12 12 14 15 15 16 15 16 16 17 17 17 17 17 16 16 16 15 15 14 14 14 14 14 14 14 14 14 14 14 14 13 13 13 13 13 13 13 13 13 13 13
11 11 11 12 12 11 11 11 11 12 14 15 16 16 16 16 17 17 17 17 17 17 17 16 16 16 15 15 15 15 15 14 14 14 14 14 14 14 14 13 13 13 13 13 12 12 12 12 12
10 11 12 12 12 12 12 11 11 12 14 15 15 16 17 17 17 17 17 17 17 17 17 17 16 16 16 15 15 14 14 14 14 14 14 14 14 13 14 13 13 13 13 13 13 12 13 12 12
10 12 12 12 10 10 11 9 10 12 12 12 14 15 16 17 17 17 17 17 17 17 17 17 17 16 16 15 15 14 15 15 15 14 14 14 14 14 14 13 14 13 13 14 14 14 13 12 12
10 12 12 11 11 10 11 9 10 11 11 12 13 15 16 17 17 16 16 17 17 17 17 17 16 16 16 16 15 15 15 15 15 15 14 14 14 14 14 14 14 14 14 14 14 13 13 12 12
12 9 8 10 11 8 10 9 9 11 12 13 14 16 17 17 17 17 17 16 16 15 16 16 16 15 16 16 15 15 15 15 15 15 15 15 14 13 14 14 14 14 14 13 13 12 12 12 11
11 9 7 8 7 9 11 10 11 13 14 14 13 15 16 16 16 17 17 16 15 15 16 16 16 16 15 15 15 15 15 15 15 15 14 13 14 14 14 14 14 13 13 13 12 12 11 11 11
11 10 7 9 7 8 11 10 12 13 14 15 15 15 15 15 15 15 15 16 16 16 16 16 16 16 16 15 15 15 14 13 12 14 14 15 13 15 13 13 13 13 12 11 11 11 11 10 9
11 6 10 8 9 6 9 12 13 12 11 12 13 13 13 14 14 14 14 14 15 15 15 15 15 15 14 15 15 15 15 14 12 12 14 13 12 12 12 12 12 12 11 10 10 10 10 10 8
11 11 8 4 7 10 9 11 11 10 10 10 11 13 13 14 14 13 13 13 13 14 14 13 14 14 13 13 13 15 15 13 13 13 13 12 12 12 12 11 11 10 10 9 9 9 9 9 7
9 9 10 9 7 7 9 9 11 11 10 10 12 13 13 13 14 14 13 13 13 12 13 12 12 12 13 12 11 12 13 14 14 13 12 12 12 13 12 11 11 9 9 8 7 7 7 7 6
9 10 11 7 9 7 6 9 12 10 10 12 13 13 13 13 13 13 13 13 13 12 11 11 11 11 11 11 11 10 11 12 12 12 12 12 12 11 10 11 10 9 7 7 6 6 6 6 5

GFSSGP_850_temp_066.txt.gz
Temp
13 14 15 15 14 12 13 17 20 19 21 21 22 21 18 18 19 18 17 18 18 18 17 17 17 16 16 16 16 16 16 15 16 17 17 17 17 17 16 15 16 17 17 17 17 17 17 16 16
13 14 14 15 13 12 14 18 20 20 18 21 21 20 19 18 18 17 16 18 18 18 17 17 17 16 16 16 16 16 15 15 16 17 17 18 18 18 17 16 17 17 17 17 17 17 17 16 16
12 13 14 12 12 13 14 18 20 19 20 19 21 20 19 18 17 17 17 17 18 18 17 17 17 16 16 16 16 16 16 16 16 17 17 18 18 18 18 18 18 17 17 17 17 17 17 17 16
12 13 14 11 13 15 17 19 20 19 17 19 20 18 18 17 17 18 17 17 18 17 17 16 16 16 16 16 17 16 16 16 16 17 18 18 18 18 18 18 18 18 18 18 17 17 17 17 16
12 12 12 11 13 16 17 19 20 18 19 18 20 17 17 15 18 18 17 17 17 17 16 16 16 16 16 16 17 16 16 15 16 17 17 18 18 18 18 18 18 18 18 18 18 17 17 17 17
12 12 11 11 13 16 18 21 18 19 20 20 20 18 15 15 16 16 17 17 17 16 16 16 16 16 16 16 17 16 16 15 15 16 17 17 18 18 18 18 18 18 18 18 17 17 17 17 17
11 11 11 12 13 16 18 20 17 17 19 18 20 19 16 15 16 16 17 17 17 16 16 16 16 16 16 16 17 17 16 16 15 16 16 17 17 18 18 18 18 18 18 18 18 17 17 17 17
11 11 11 11 13 15 18 19 18 18 17 18 18 16 14 18 17 16 16 16 17 17 16 16 16 16 16 16 17 17 17 16 15 16 17 18 17 18 18 18 18 18 18 18 18 17 17 17 17
11 10 11 12 13 16 18 16 18 18 17 17 18 18 17 17 17 16 15 16 16 16 17 16 15 15 16 16 17 17 17 17 16 16 17 18 18 18 17 18 18 17 17 17 17 17 17 17 17
10 11 11 13 14 15 16 17 18 17 15 15 16 18 18 17 16 17 16 15 16 16 16 17 16 15 15 16 16 17 17 17 16 16 17 18 18 18 17 17 18 17 17 17 17 16 16 16 16
10 11 12 13 14 15 15 16 17 16 15 15 15 16 17 17 19 20 19 16 15 16 17 16 16 16 15 16 16 16 16 16 16 16 17 17 17 17 17 17 17 17 17 17 16 16 16 16 16
10 12 11 14 13 14 15 16 14 16 16 17 16 16 17 16 17 19 18 16 15 15 15 16 16 16 15 15 16 16 16 17 16 17 17 17 17 17 17 17 17 17 16 16 16 16 16 15 15
10 11 11 12 12 12 14 14 14 15 16 16 16 16 16 16 16 17 17 16 17 15 15 15 16 16 16 15 15 15 16 16 16 15 16 16 16 16 16 17 16 16 16 16 16 16 16 15 14
10 12 12 11 11 11 13 13 15 15 16 16 16 16 16 17 16 16 17 17 17 16 15 15 16 16 16 16 16 15 15 16 15 15 15 15 15 15 15 16 16 16 16 15 15 15 14 14 14
9 10 10 11 10 11 11 13 12 15 16 16 16 16 17 17 17 17 17 16 16 15 16 15 15 15 16 15 16 16 15 15 15 14 14 14 15 15 15 16 15 15 15 15 14 14 14 14 13
9 9 9 9 11 10 10 12 12 14 15 15 15 16 16 17 18 17 16 16 16 17 16 15 16 15 16 16 16 16 15 15 15 15 14 14 14 15 15 15 15 14 14 14 14 14 13 13 13
8 7 9 7 8 10 10 12 12 14 15 15 15 15 16 16 16 17 16 16 16 16 16 17 17 16 15 16 16 16 15 15 15 15 15 14 14 14 15 14 14 14 13 13 13 13 13 13 13
8 7 7 7 9 9 10 10 12 14 15 15 16 16 15 16 16 17 17 17 16 16 16 15 15 15 16 15 15 15 15 14 15 15 14 14 14 14 14 14 14 13 13 13 13 13 13 13 13
10 9 9 9 9 10 10 10 10 13 13 13 14 16 16 16 16 16 17 17 17 16 16 16 16 16 16 15 15 15 15 15 14 14 14 14 14 14 14 14 13 13 13 13 13 13 12 13 13
11 11 10 10 10 10 10 10 11 11 12 14 14 15 15 16 16 16 16 17 17 17 16 16 16 15 15 15 15 15 14 14 14 14 14 14 14 14 14 14 13 13 13 13 12 12 12 12 12
10 11 10 10 10 11 10 9 10 11 12 14 15 15 15 16 16 17 17 16 17 17 17 17 17 17 16 16 16 15 14 14 14 14 14 14 14 14 13 13 13 13 13 13 12 12 12 12 12
10 11 12 11 10 10 10 9 9 12 11 11 14 15 15 16 16 16 17 17 16 17 17 17 17 17 16 16 15 15 15 15 15 15 14 14 13 14 13 13 13 13 13 13 13 12 13 12 13
11 11 10 10 9 9 9 9 10 9 10 12 12 14 15 16 16 16 17 16 17 17 17 16 16 16 16 15 15 15 15 15 15 15 15 14 14 14 14 14 14 13 13 14 14 14 14 13 12
9 7 7 9 8 9 10 9 9 10 10 11 11 14 15 16 16 16 17 16 16 16 17 16 16 16 16 16 15 15 15 15 14 14 14 15 15 14 14 14 14 14 14 14 14 13 13 12 12
10 9 7 8 8 9 9 9 9 12 12 12 12 13 14 15 15 15 16 16 16 16 16 16 16 16 16 16 16 15 15 15 14 14 14 14 14 14 14 14 14 14 14 13 13 12 12 12 11
10 9 7 9 8 9 10 9 11 11 11 12 13 13 14 14 14 15 15 16 16 16 15 15 16 16 15 15 15 15 15 15 15 14 14 14 14 14 13 13 13 13 14 12 12 11 12 11 11
10 8 10 7 7 6 9 11 12 9 9 10 11 13 13 13 13 14 14 14 15 15 15 15 15 15 14 14 15 14 14 14 15 15 14 13 13 13 13 13 13 13 13 12 12 11 10 10 10
10 10 9 6 7 10 9 10 10 10 10 10 10 11 12 13 13 13 14 14 14 14 14 13 14 13 14 14 13 13 12 13 13 14 14 13 13 13 13 13 13 12 12 11 11 10 10 9 9
8 9 8 7 7 7 8 9 10 9 9 9 10 12 12 13 13 13 13 13 13 13 13 12 12 12 12 12 12 12 12 12 12 13 13 13 13 12 12 12 11 11 10 10 10 9 8 8 6
9 10 8 5 8 5 5 8 9 9 9 9 10 11 12 12 12 12 12 12 12 12 12 12 11 10 11 11 11 12 11 11 11 11 11 11 11 10 11 11 10 9 9 9 8 7 6 6 4

GFSSGP_850_temp_069.txt.gz
Temp
12 13 13 14 13 12 13 15 18 18 19 20 20 20 18 17 19 18 16 17 18 17 17 17 17 16 16 16 17 16 15 16 17 17 16 16 15 15 15 16 17 17 17 18 17 17 17 17 16
12 12 13 13 11 12 14 15 18 15 17 19 20 18 18 17 16 16 16 17 18 17 17 16 16 16 16 16 17 16 15 16 17 17 17 17 16 15 15 17 17 18 18 18 18 18 17 18 17
11 12 13 11 10 13 14 17 18 19 19 18 18 19 18 15 16 16 16 16 17 17 16 16 16 16 16 16 16 16 16 17 17 17 18 18 17 17 17 18 18 18 18 18 18 18 17 17 18
12 12 13 10 11 12 15 18 19 16 15 16 17 18 17 15 16 16 17 16 16 15 16 16 16 16 16 16 16 15 16 17 17 17 18 18 18 18 18 18 18 18 18 18 17 17 17 17 17
11 12 11 11 11 14 15 18 18 16 13 16 16 17 16 16 17 18 17 16 16 15 16 16 16 16 16 16 16 16 16 17 17 17 18 18 18 18 18 18 18 18 18 18 18 18 17 17 17
10 12 11 10 12 13 15 18 17 17 14 14 15 16 17 17 16 16 17 16 16 15 16 16 16 16 16 16 16 15 15 16 17 17 18 18 18 18 18 18 18 18 18 18 18 17 17 17 17
10 10 11 11 12 14 16 19 17 17 15 14 15 17 16 17 15 16 16 16 16 16 16 16 15 15 16 16 16 15 15 15 16 17 17 17 18 18 18 18 17 17 17 17 17 17 17 17 17
10 11 11 10 11 13 17 17 19 18 16 18 18 16 15 16 15 15 15 16 16 16 15 15 15 15 15 16 16 16 15 15 15 16 17 17 17 18 18 18 18 18 17 17 17 17 16 16 16
9 10 11 11 11 14 17 16 16 17 17 17 17 18 18 16 16 14 15 15 15 15 15 15 15 15 15 16 16 16 16 15 15 16 17 17 17 17 17 17 17 17 17 17 17 16 16 16 16
9 9 11 12 13 14 16 17 17 17 16 16 16 18 17 19 16 14 15 15 15 15 16 16 16 15 15 16 16 16 16 15 15 16 16 17 17 17 17 17 17 17 17 17 17 16 16 16 15
10 10 12 13 13 14 15 16 17 15 14 16 17 18 18 17 17 17 14 14 15 15 15 16 16 16 16 16 16 16 16 16 15 15 16 16 16 17 17 17 17 17 16 16 16 16 16 15 15
10 11 12 14 12 12 14 16 14 16 18 18 17 14 17 18 17 18 17 16 16 15 15 15 15 16 16 15 16 16 16 16 15 15 16 17 16 16 16 16 16 16 16 16 16 15 15 15 14
9 10 11 12 11 11 13 14 14 15 17 17 17 15 14 15 15 16 16 16 16 17 14 14 14 15 16 16 16 16 16 16 16 16 16 17 16 16 16 16 16 16 16 15 15 15 15 14 14
10 9 11 11 11 11 11 13 14 15 15 17 17 17 17 15 15 16 16 16 16 18 17 16 14 14 16 16 16 16 15 15 16 16 16 16 16 16 15 16 16 15 15 15 14 14 14 14 14
9 9 10 10 10 11 9 12 12 15 15 15 16 16 17 17 16 16 16 17 18 17 16 17 15 14 14 15 17 17 16 15 15 15 15 15 15 15 15 15 15 15 15 15 14 14 14 14 13
8 6 10 9 10 10 10 11 12 13 14 14 15 15 17 17 17 17 17 17 17 16 15 16 16 17 15 15 15 16 17 15 15 15 15 15 14 14 14 14 15 15 14 14 14 14 13 13 13
7 7 9 8 9 9 9 11 12 13 14 14 14 15 16 16 17 17 17 17 16 16 15 15 15 15 17 15 14 15 14 15 15 15 15 15 14 14 14 14 14 14 14 14 13 13 13 13 13
8 6 9 9 8 9 9 10 11 12 13 14 14 15 16 16 16 16 16 16 16 16 16 16 16 16 15 15 15 15 14 14 15 15 14 14 14 14 14 14 14 14 13 13 13 13 13 13 13
9 7 8 9 9 9 9 10 10 10 11 12 14 14 15 16 16 16 16 16 17 16 16 15 15 15 14 14 15 14 14 15 15 14 14 14 14 14 13 13 13 13 13 13 13 13 13 13 13
9 8 8 9 9 10 9 9 10 10 10 12 14 15 15 16 16 16 17 16 16 16 16 16 16 15 16 16 16 15 15 15 15 15 14 14 14 14 14 14 13 13 13 13 13 13 12 12 12
10 7 7 8 9 9 9 9 9 9 9 12 13 14 15 15 16 16 16 17 17 16 16 16 16 16 16 16 15 15 15 15 14 15 14 14 14 14 14 13 13 13 13 13 13 12 12 12 12
9 10 10 10 9 8 9 9 9 10 10 11 12 13 14 15 15 16 16 16 16 17 17 16 16 16 16 16 16 15 16 16 15 15 14 14 14 14 14 14 14 14 13 13 12 12 12 12 12
9 10 11 11 9 9 9 9 10 9 10 11 11 14 15 15 15 15 16 16 16 17 17 17 17 16 16 16 16 15 15 15 15 14 14 14 14 14 14 14 13 13 13 13 13 12 13 13 13
9 8 8 8 8 9 9 10 9 10 10 11 12 13 15 15 16 16 15 16 16 16 16 17 16 16 16 16 16 16 15 15 14 14 13 14 14 14 13 13 13 13 13 13 14 14 14 13 13
10 9 8 8 8 8 9 9 10 9 9 11 10 11 13 14 15 16 16 16 16 16 15 16 16 16 16 16 15 15 15 15 15 14 13 14 13 13 13 12 13 13 13 13 13 13 13 13 12
9 9 7 8 8 8 9 9 10 9 9 10 10 11 12 13 13 14 15 16 16 16 15 15 15 15 15 15 15 15 15 14 14 14 14 13 12 12 13 13 12 13 13 13 13 12 12 11 11
7 8 10 7 7 8 9 10 11 9 8 9 10 12 12 13 13 13 13 14 14 14 14 13 14 14 15 15 14 14 14 14 14 14 13 13 13 13 13 13 13 13 14 14 13 12 11 11 11
10 9 9 6 8 9 8 10 9 10 9 8 7 10 11 12 12 12 12 12 12 12 12 13 13 13 14 14 13 14 14 13 13 13 13 13 12 13 14 13 13 13 13 13 12 11 11 10 10
8 8 8 7 7 7 8 9 9 9 8 7 7 10 10 11 11 11 11 11 12 12 12 12 12 12 12 12 12 12 12 12 12 12 12 13 13 12 12 12 12 12 11 10 10 10 9 9 8
8 9 7 6 7 4 5 8 6 7 8 8 8 9 9 10 10 10 11 11 11 11 11 11 11 10 10 10 10 10 10 10 10 11 11 11 11 11 11 11 11 10 10 10 9 9 8 7 6